,,PA_Meas_PMT16A,,PR_Meas_QMR101_102,,RH_Meas_QMH101,,SR_Meas_QMS101,,TA_Meas_QMH101,,GenWind,,GenWind,
time,status,PA,status,PR,status,RH,status,SR,status,TA,status,DirAvg,status,SpdAvg,
2011-09-23, 00:00:04,VALID,918.736,VALID,0,VALID,96.3447,VALID,0,VALID,20.6764,VALID,243,VALID,0.421094,
2011-09-23, 00:01:04,VALID,918.714,VALID,0,VALID,96.3676,VALID,0,VALID,20.6959,VALID,243,VALID,0.503125,
2011-09-23, 00:02:04,VALID,918.702,VALID,0,VALID,96.3829,VALID,0,VALID,20.6764,VALID,243,VALID,0.615625,
2011-09-23, 00:03:04,VALID,918.719,VALID,0,VALID,96.4286,VALID,0,VALID,20.6569,VALID,243,VALID,0.483594,
2011-09-23, 00:04:04,VALID,918.702,VALID,0,VALID,96.4515,VALID,0,VALID,20.6569,VALID,243,VALID,0.489062,
2011-09-23, 00:05:04,VALID,918.675,VALID,0,VALID,96.4667,VALID,0,VALID,20.678,VALID,243,VALID,0.345703,
2011-09-23, 00:06:04,VALID,918.669,VALID,0,VALID,96.4972,VALID,0,VALID,20.6764,VALID,243,VALID,0.290625,
2011-09-23, 00:07:04,VALID,918.644,VALID,0,VALID,96.5201,VALID,0,VALID,20.6959,VALID,243,VALID,0.197266,
2011-09-23, 00:08:04,VALID,918.633,VALID,0,VALID,96.5201,VALID,0,VALID,20.717,VALID,243,VALID,0.237891,
2011-09-23, 00:09:04,VALID,918.649,VALID,0,VALID,96.5429,VALID,0,VALID,20.6959,VALID,243,VALID,0.321094,
2011-09-23, 00:10:04,VALID,918.625,VALID,0,VALID,96.5734,VALID,0,VALID,20.6959,VALID,243,VALID,0.619141,
2011-09-23, 00:11:04,VALID,918.602,VALID,0,VALID,96.5887,VALID,0,VALID,20.6959,VALID,243,VALID,0.661328,
2011-09-23, 00:12:04,VALID,918.563,VALID,0,VALID,96.6039,VALID,0,VALID,20.717,VALID,243,VALID,0.417578,
2011-09-23, 00:13:04,VALID,918.565,VALID,0,VALID,96.5963,VALID,0,VALID,20.6959,VALID,243,VALID,0.48125,
2011-09-23, 00:14:04,VALID,918.588,VALID,0,VALID,96.6268,VALID,0,VALID,20.6959,VALID,243,VALID,0.544141,
2011-09-23, 00:15:04,VALID,918.549,VALID,0,VALID,96.642,VALID,0,VALID,20.6975,VALID,243,VALID,0.473437,
2011-09-23, 00:16:04,VALID,918.563,VALID,0,VALID,96.6725,VALID,0,VALID,20.6764,VALID,243,VALID,0.350781,
2011-09-23, 00:17:04,VALID,918.551,VALID,0,VALID,96.6878,VALID,0,VALID,20.6764,VALID,243,VALID,0,
2011-09-23, 00:18:04,VALID,918.53,VALID,0,VALID,96.6725,VALID,0,VALID,20.6764,VALID,243,VALID,0.667578,
2011-09-23, 00:19:04,VALID,918.528,VALID,0,VALID,96.6954,VALID,0,VALID,20.6975,VALID,243,VALID,0.647266,
2011-09-23, 00:20:04,VALID,918.495,VALID,0,VALID,96.703,VALID,0,VALID,20.6959,VALID,243,VALID,0.469531,
2011-09-23, 00:21:04,VALID,918.481,VALID,0,VALID,96.7335,VALID,0,VALID,20.678,VALID,243,VALID,0.396875,
2011-09-23, 00:22:04,VALID,918.473,VALID,0,VALID,96.7411,VALID,0,VALID,20.6764,VALID,243,VALID,0.396875,
2011-09-23, 00:23:04,VALID,918.436,VALID,0,VALID,96.7564,VALID,0,VALID,20.6959,VALID,243,VALID,0.483203,
2011-09-23, 00:24:04,VALID,918.426,VALID,0,VALID,96.7716,VALID,0,VALID,20.6959,VALID,243,VALID,0.442969,
2011-09-23, 00:25:04,VALID,918.402,VALID,0,VALID,96.764,VALID,0,VALID,20.6764,VALID,243,VALID,0.576563,
2011-09-23, 00:26:04,VALID,918.408,VALID,0,VALID,96.7945,VALID,0,VALID,20.6959,VALID,243,VALID,0.0628906,
2011-09-23, 00:27:04,VALID,918.395,VALID,0,VALID,96.825,VALID,0,VALID,20.7154,VALID,243,VALID,0.476172,
2011-09-23, 00:28:04,VALID,918.382,VALID,0,VALID,96.8326,VALID,0,VALID,20.7365,VALID,243,VALID,0.437109,
2011-09-23, 00:29:04,VALID,918.374,VALID,0,VALID,96.8174,VALID,0,VALID,20.6959,VALID,243,VALID,0.598047,
2011-09-23, 00:30:04,VALID,918.349,VALID,0,VALID,96.8326,VALID,0,VALID,20.6959,VALID,243,VALID,0.176563,
2011-09-23, 00:31:04,VALID,918.344,VALID,0,VALID,96.825,VALID,0,VALID,20.6569,VALID,243,VALID,0.373047,
2011-09-23, 00:32:04,VALID,918.359,VALID,0,VALID,96.825,VALID,0,VALID,20.6374,VALID,243,VALID,0.371484,
2011-09-23, 00:33:04,VALID,918.343,VALID,0,VALID,96.8326,VALID,0,VALID,20.6374,VALID,243,VALID,0.485547,
2011-09-23, 00:34:04,VALID,918.325,VALID,0,VALID,96.8174,VALID,0,VALID,20.6179,VALID,243,VALID,0.445703,
2011-09-23, 00:35:04,VALID,918.327,VALID,0,VALID,96.8021,VALID,0,VALID,20.5984,VALID,242,VALID,0.316797,
2011-09-23, 00:36:04,VALID,918.293,VALID,0,VALID,96.825,VALID,0,VALID,20.5999,VALID,206,VALID,0.591406,
2011-09-23, 00:37:04,VALID,918.304,VALID,0,VALID,96.8479,VALID,0,VALID,20.5789,VALID,161,VALID,0.557813,
2011-09-23, 00:38:04,VALID,918.277,VALID,0,VALID,96.8555,VALID,0,VALID,20.5999,VALID,161,VALID,0.748047,
2011-09-23, 00:39:05,VALID,918.245,VALID,0,VALID,96.8479,VALID,0,VALID,20.5594,VALID,161,VALID,0.766797,
2011-09-23, 00:40:05,VALID,918.256,VALID,0,VALID,96.8555,VALID,0,VALID,20.5594,VALID,161,VALID,0.460156,
2011-09-23, 00:41:05,VALID,918.23,VALID,0,VALID,96.8555,VALID,0,VALID,20.5594,VALID,161,VALID,0.432813,
2011-09-23, 00:42:05,VALID,918.2,VALID,0,VALID,96.8555,VALID,0,VALID,20.5804,VALID,161,VALID,0.713672,
2011-09-23, 00:43:05,VALID,918.171,VALID,0,VALID,96.886,VALID,0,VALID,20.5594,VALID,161,VALID,0,
2011-09-23, 00:44:05,VALID,918.159,VALID,0,VALID,96.8784,VALID,0,VALID,20.5594,VALID,161,VALID,0.405078,
2011-09-23, 00:45:05,VALID,918.144,VALID,0,VALID,96.886,VALID,0,VALID,20.5804,VALID,161,VALID,0,
2011-09-23, 00:46:05,VALID,918.162,VALID,0,VALID,96.9012,VALID,0,VALID,20.5399,VALID,161,VALID,0.277344,
2011-09-23, 00:47:05,VALID,918.108,VALID,0,VALID,96.8784,VALID,0,VALID,20.5204,VALID,161,VALID,0.371484,
2011-09-23, 00:48:05,VALID,918.099,VALID,0,VALID,96.8707,VALID,0,VALID,20.5399,VALID,161,VALID,0,
2011-09-23, 00:49:05,VALID,918.1,VALID,0,VALID,96.8555,VALID,0,VALID,20.5204,VALID,161,VALID,0.332422,
2011-09-23, 00:50:05,VALID,918.066,VALID,0,VALID,96.8631,VALID,0,VALID,20.5009,VALID,161,VALID,0.425391,
2011-09-23, 00:51:05,VALID,918.078,VALID,0,VALID,96.8479,VALID,0,VALID,20.4813,VALID,161,VALID,0.335156,
2011-09-23, 00:52:05,VALID,918.068,VALID,0,VALID,96.8555,VALID,0,VALID,20.5024,VALID,161,VALID,0.599219,
2011-09-23, 00:53:05,VALID,918.064,VALID,0,VALID,96.8403,VALID,0,VALID,20.5219,VALID,161,VALID,0.0234375,
2011-09-23, 00:54:05,VALID,918.038,VALID,0,VALID,96.8631,VALID,0,VALID,20.5009,VALID,161,VALID,0.172656,
2011-09-23, 00:55:05,VALID,918.074,VALID,0,VALID,96.8479,VALID,0,VALID,20.5219,VALID,161,VALID,0.741797,
2011-09-23, 00:56:05,VALID,918.043,VALID,0,VALID,96.8403,VALID,0,VALID,20.4813,VALID,161,VALID,0.525391,
2011-09-23, 00:57:05,VALID,918.012,VALID,0,VALID,96.8403,VALID,0,VALID,20.4408,VALID,161,VALID,0.467969,
2011-09-23, 00:58:05,VALID,917.998,VALID,0,VALID,96.8479,VALID,0,VALID,20.4829,VALID,161,VALID,0.489453,
2011-09-23, 00:59:05,VALID,917.989,VALID,0,VALID,96.8555,VALID,0,VALID,20.4423,VALID,161,VALID,0.523047,
2011-09-23, 01:00:05,VALID,917.984,VALID,0,VALID,96.8555,VALID,0,VALID,20.4634,VALID,161,VALID,0.736328,
2011-09-23, 01:01:05,VALID,917.962,VALID,0,VALID,96.8479,VALID,0,VALID,20.4228,VALID,161,VALID,0.894531,
2011-09-23, 01:02:05,VALID,918.001,VALID,0,VALID,96.8631,VALID,0,VALID,20.4439,VALID,161,VALID,0.765234,
2011-09-23, 01:03:05,VALID,917.966,VALID,0,VALID,96.8403,VALID,0,VALID,20.4228,VALID,161,VALID,0.433594,
2011-09-23, 01:04:05,VALID,917.959,VALID,0,VALID,96.8326,VALID,0,VALID,20.4244,VALID,161,VALID,0.266016,
2011-09-23, 01:05:05,VALID,917.985,VALID,0,VALID,96.825,VALID,0,VALID,20.3838,VALID,161,VALID,0.384375,
2011-09-23, 01:06:05,VALID,917.932,VALID,0,VALID,96.8403,VALID,0,VALID,20.3838,VALID,161,VALID,0.161719,
2011-09-23, 01:07:05,VALID,917.939,VALID,0,VALID,96.8707,VALID,0,VALID,20.3838,VALID,161,VALID,0,
2011-09-23, 01:08:05,VALID,917.967,VALID,0,VALID,96.8479,VALID,0,VALID,20.4049,VALID,161,VALID,0,
2011-09-23, 01:09:05,VALID,917.914,VALID,0,VALID,96.8403,VALID,0,VALID,20.3854,VALID,161,VALID,0,
2011-09-23, 01:10:05,VALID,917.921,VALID,0,VALID,96.8631,VALID,0,VALID,20.3854,VALID,161,VALID,0,
2011-09-23, 01:11:05,VALID,917.907,VALID,0,VALID,96.8555,VALID,0,VALID,20.3643,VALID,161,VALID,0,
2011-09-23, 01:12:05,VALID,917.879,VALID,0,VALID,96.8403,VALID,0,VALID,20.3659,VALID,161,VALID,0,
2011-09-23, 01:13:05,VALID,917.852,VALID,0,VALID,96.8479,VALID,0,VALID,20.3448,VALID,161,VALID,0,
2011-09-23, 01:14:05,VALID,917.862,VALID,0,VALID,96.8555,VALID,0,VALID,20.3659,VALID,161,VALID,0,
2011-09-23, 01:15:05,VALID,917.842,VALID,0,VALID,96.8707,VALID,0,VALID,20.3464,VALID,161,VALID,0,
2011-09-23, 01:16:05,VALID,917.831,VALID,0,VALID,96.8479,VALID,0,VALID,20.3464,VALID,161,VALID,0,
2011-09-23, 01:17:05,VALID,917.852,VALID,0,VALID,96.8479,VALID,0,VALID,20.3464,VALID,161,VALID,0,
2011-09-23, 01:18:05,VALID,917.82,VALID,0,VALID,96.8784,VALID,0,VALID,20.3464,VALID,161,VALID,0,
2011-09-23, 01:19:05,VALID,917.85,VALID,0,VALID,96.8784,VALID,0,VALID,20.3253,VALID,161,VALID,0,
2011-09-23, 01:20:05,VALID,917.809,VALID,0,VALID,96.886,VALID,0,VALID,20.3448,VALID,161,VALID,0,
2011-09-23, 01:21:05,VALID,917.818,VALID,0,VALID,96.8707,VALID,0,VALID,20.3253,VALID,161,VALID,0,
2011-09-23, 01:22:05,VALID,917.797,VALID,0,VALID,96.8707,VALID,0,VALID,20.3253,VALID,161,VALID,0,
2011-09-23, 01:23:05,VALID,917.784,VALID,0,VALID,96.8479,VALID,0,VALID,20.3058,VALID,161,VALID,0,
2011-09-23, 01:24:05,VALID,917.803,VALID,0,VALID,96.8403,VALID,0,VALID,20.3269,VALID,161,VALID,0,
2011-09-23, 01:25:05,VALID,917.775,VALID,0,VALID,96.8326,VALID,0,VALID,20.3074,VALID,161,VALID,0,
2011-09-23, 01:26:05,VALID,917.779,VALID,0,VALID,96.8479,VALID,0,VALID,20.2863,VALID,161,VALID,0,
2011-09-23, 01:27:05,VALID,917.788,VALID,0,VALID,96.8403,VALID,0,VALID,20.2879,VALID,161,VALID,0,
2011-09-23, 01:28:05,VALID,917.759,VALID,0,VALID,96.825,VALID,0,VALID,20.2668,VALID,161,VALID,0,
2011-09-23, 01:29:05,VALID,917.794,VALID,0,VALID,96.8326,VALID,0,VALID,20.2879,VALID,161,VALID,0,
2011-09-23, 01:30:05,VALID,917.79,VALID,0,VALID,96.8326,VALID,0,VALID,20.2879,VALID,161,VALID,0,
2011-09-23, 01:31:05,VALID,917.759,VALID,0,VALID,96.8174,VALID,0,VALID,20.2879,VALID,161,VALID,0,
2011-09-23, 01:32:05,VALID,917.744,VALID,0,VALID,96.8326,VALID,0,VALID,20.2668,VALID,161,VALID,0,
2011-09-23, 01:33:05,VALID,917.762,VALID,0,VALID,96.8174,VALID,0,VALID,20.2668,VALID,161,VALID,0,
2011-09-23, 01:34:05,VALID,917.751,VALID,0,VALID,96.7869,VALID,0,VALID,20.2489,VALID,161,VALID,0,
2011-09-23, 01:35:05,VALID,917.771,VALID,0,VALID,96.8174,VALID,0,VALID,20.2473,VALID,161,VALID,0,
2011-09-23, 01:36:05,VALID,917.73,VALID,0,VALID,96.7945,VALID,0,VALID,20.2473,VALID,161,VALID,0,
2011-09-23, 01:37:05,VALID,917.73,VALID,0,VALID,96.7793,VALID,0,VALID,20.2489,VALID,161,VALID,0,
2011-09-23, 01:38:05,VALID,917.713,VALID,0,VALID,96.7793,VALID,0,VALID,20.2098,VALID,161,VALID,0,
2011-09-23, 01:39:05,VALID,917.724,VALID,0,VALID,96.642,VALID,0,VALID,20.1919,VALID,161,VALID,0.483984,
2011-09-23, 01:40:05,VALID,917.736,VALID,0,VALID,96.6649,VALID,0,VALID,20.1303,VALID,161,VALID,0.525,
2011-09-23, 01:41:05,VALID,917.748,VALID,0,VALID,96.7183,VALID,0,VALID,20.1318,VALID,161,VALID,0.610547,
2011-09-23, 01:42:05,VALID,917.739,VALID,0,VALID,96.5582,VALID,0,VALID,20.0538,VALID,161,VALID,0.623438,
2011-09-23, 01:43:05,VALID,917.725,VALID,0,VALID,96.6649,VALID,0,VALID,19.9953,VALID,161,VALID,0.808984,
2011-09-23, 01:44:05,VALID,917.742,VALID,0,VALID,96.764,VALID,0,VALID,20.0343,VALID,161,VALID,0.742188,
2011-09-23, 01:45:05,VALID,917.685,VALID,0,VALID,96.7716,VALID,0,VALID,19.9743,VALID,161,VALID,0.819141,
2011-09-23, 01:46:05,VALID,917.713,VALID,0,VALID,96.8707,VALID,0,VALID,19.9938,VALID,161,VALID,0.661328,
2011-09-23, 01:47:05,VALID,917.712,VALID,0,VALID,96.825,VALID,0,VALID,19.9953,VALID,161,VALID,0.761328,
2011-09-23, 01:48:05,VALID,917.698,VALID,0,VALID,96.8936,VALID,0,VALID,19.9938,VALID,161,VALID,0.493359,
2011-09-23, 01:49:05,VALID,917.697,VALID,0,VALID,96.9394,VALID,0.107441,VALID,19.9953,VALID,161,VALID,0.758984,
2011-09-23, 01:50:05,VALID,917.671,VALID,0,VALID,96.9546,VALID,0,VALID,20.0148,VALID,161,VALID,0.623828,
2011-09-23, 01:51:05,VALID,917.638,VALID,0,VALID,96.9394,VALID,0,VALID,19.9938,VALID,161,VALID,0.728125,
2011-09-23, 01:52:05,VALID,917.645,VALID,0,VALID,96.9698,VALID,0,VALID,20.0148,VALID,161,VALID,0.69375,
2011-09-23, 01:53:05,VALID,917.618,VALID,0,VALID,97.0003,VALID,0,VALID,20.0328,VALID,161,VALID,1.02539,
2011-09-23, 01:54:05,VALID,917.62,VALID,0,VALID,97.0232,VALID,0,VALID,20.0523,VALID,161,VALID,1.19609,
2011-09-23, 01:55:05,VALID,917.601,VALID,0,VALID,97.0385,VALID,0,VALID,20.0913,VALID,161,VALID,1.02266,
2011-09-23, 01:56:05,VALID,917.608,VALID,0,VALID,97.0461,VALID,0,VALID,20.0913,VALID,161,VALID,1.05508,
2011-09-23, 01:57:05,VALID,917.591,VALID,0,VALID,97.0461,VALID,0,VALID,20.0718,VALID,161,VALID,0.916406,
2011-09-23, 01:58:05,VALID,917.595,VALID,0,VALID,97.0537,VALID,0,VALID,20.0928,VALID,161,VALID,0.919922,
2011-09-23, 01:59:05,VALID,917.59,VALID,0,VALID,97.0918,VALID,0,VALID,20.0913,VALID,161,VALID,0.923437,
2011-09-23, 02:00:05,VALID,917.598,VALID,0,VALID,97.069,VALID,0,VALID,20.0913,VALID,161,VALID,0.7375,
2011-09-23, 02:01:05,VALID,917.604,VALID,0,VALID,97.0918,VALID,0,VALID,20.1123,VALID,161,VALID,0.463281,
2011-09-23, 02:02:05,VALID,917.606,VALID,0,VALID,97.0994,VALID,0,VALID,20.1108,VALID,161,VALID,0.624219,
2011-09-23, 02:03:05,VALID,917.621,VALID,0,VALID,97.1299,VALID,0,VALID,20.1303,VALID,161,VALID,0.715625,
2011-09-23, 02:04:05,VALID,917.579,VALID,0,VALID,97.1223,VALID,0,VALID,20.1513,VALID,161,VALID,0.447266,
2011-09-23, 02:05:05,VALID,917.574,VALID,0,VALID,97.1528,VALID,0,VALID,20.1708,VALID,161,VALID,0.276563,
2011-09-23, 02:06:05,VALID,917.61,VALID,0,VALID,97.1376,VALID,0,VALID,20.1708,VALID,161,VALID,0,
2011-09-23, 02:07:05,VALID,917.57,VALID,0,VALID,97.1376,VALID,0,VALID,20.1498,VALID,161,VALID,0,
2011-09-23, 02:08:05,VALID,917.552,VALID,0,VALID,97.1604,VALID,0,VALID,20.1693,VALID,161,VALID,0,
2011-09-23, 02:09:05,VALID,917.555,VALID,0,VALID,97.1528,VALID,0,VALID,20.1693,VALID,161,VALID,0.166797,
2011-09-23, 02:10:05,VALID,917.516,VALID,0,VALID,97.1681,VALID,0,VALID,20.2293,VALID,161,VALID,0,
2011-09-23, 02:11:05,VALID,917.559,VALID,0,VALID,97.1833,VALID,0,VALID,20.2489,VALID,161,VALID,0,
2011-09-23, 02:12:05,VALID,917.567,VALID,0,VALID,97.2062,VALID,0,VALID,20.2684,VALID,161,VALID,0,
2011-09-23, 02:13:05,VALID,917.608,VALID,0,VALID,97.1909,VALID,0,VALID,20.2668,VALID,161,VALID,0.0140625,
2011-09-23, 02:14:05,VALID,917.575,VALID,0,VALID,97.1909,VALID,0,VALID,20.2879,VALID,161,VALID,0,
2011-09-23, 02:15:05,VALID,917.613,VALID,0,VALID,97.1757,VALID,0,VALID,20.2668,VALID,161,VALID,0,
2011-09-23, 02:16:05,VALID,917.595,VALID,0,VALID,97.2214,VALID,0,VALID,20.2879,VALID,161,VALID,0,
2011-09-23, 02:17:05,VALID,917.584,VALID,0,VALID,97.1909,VALID,0,VALID,20.2863,VALID,161,VALID,0,
2011-09-23, 02:18:05,VALID,917.57,VALID,0,VALID,97.1833,VALID,0,VALID,20.2684,VALID,161,VALID,0,
2011-09-23, 02:19:05,VALID,917.571,VALID,0,VALID,97.1909,VALID,0,VALID,20.2489,VALID,161,VALID,0,
2011-09-23, 02:20:05,VALID,917.581,VALID,0,VALID,97.1909,VALID,0,VALID,20.2684,VALID,161,VALID,0,
2011-09-23, 02:21:05,VALID,917.553,VALID,0,VALID,97.2062,VALID,0,VALID,20.2278,VALID,161,VALID,0,
2011-09-23, 02:22:05,VALID,917.582,VALID,0,VALID,97.2214,VALID,0,VALID,20.2293,VALID,161,VALID,0,
2011-09-23, 02:23:05,VALID,917.578,VALID,0,VALID,97.1909,VALID,0,VALID,20.1888,VALID,161,VALID,0.288281,
2011-09-23, 02:24:05,VALID,917.57,VALID,0,VALID,97.1986,VALID,0,VALID,20.1888,VALID,161,VALID,0.182422,
2011-09-23, 02:25:05,VALID,917.561,VALID,0,VALID,97.1986,VALID,0.107441,VALID,20.1693,VALID,161,VALID,0.170703,
2011-09-23, 02:26:05,VALID,917.612,VALID,0,VALID,97.229,VALID,0,VALID,20.1903,VALID,161,VALID,0.221875,
2011-09-23, 02:27:05,VALID,917.603,VALID,0,VALID,97.2214,VALID,0,VALID,20.2098,VALID,161,VALID,0.244531,
2011-09-23, 02:28:05,VALID,917.617,VALID,0,VALID,97.229,VALID,0,VALID,20.2098,VALID,161,VALID,0.222266,
2011-09-23, 02:29:05,VALID,917.616,VALID,0,VALID,97.2519,VALID,0,VALID,20.1888,VALID,161,VALID,0.244922,
2011-09-23, 02:30:05,VALID,917.599,VALID,0,VALID,97.2443,VALID,0,VALID,20.2083,VALID,161,VALID,0,
2011-09-23, 02:31:05,VALID,917.581,VALID,0,VALID,97.2595,VALID,0,VALID,20.1903,VALID,161,VALID,0,
2011-09-23, 02:32:05,VALID,917.597,VALID,0,VALID,97.229,VALID,0,VALID,20.1708,VALID,161,VALID,0,
2011-09-23, 02:33:05,VALID,917.603,VALID,0,VALID,97.229,VALID,0,VALID,20.1903,VALID,161,VALID,0,
2011-09-23, 02:34:05,VALID,917.585,VALID,0,VALID,97.2595,VALID,0,VALID,20.1903,VALID,161,VALID,0,
2011-09-23, 02:35:05,VALID,917.559,VALID,0,VALID,97.2443,VALID,0.107441,VALID,20.1693,VALID,161,VALID,0,
2011-09-23, 02:36:05,VALID,917.583,VALID,0,VALID,97.2519,VALID,0,VALID,20.1693,VALID,161,VALID,0,
2011-09-23, 02:37:05,VALID,917.56,VALID,0,VALID,97.2367,VALID,0,VALID,20.1498,VALID,161,VALID,0,
2011-09-23, 02:38:05,VALID,917.555,VALID,0,VALID,97.2367,VALID,0,VALID,20.1903,VALID,161,VALID,0,
2011-09-23, 02:39:05,VALID,917.574,VALID,0,VALID,97.2367,VALID,0,VALID,20.1693,VALID,161,VALID,0.0238281,
2011-09-23, 02:40:05,VALID,917.553,VALID,0,VALID,97.2519,VALID,0,VALID,20.1513,VALID,161,VALID,0.228125,
2011-09-23, 02:41:05,VALID,917.551,VALID,0,VALID,97.2367,VALID,0,VALID,20.1513,VALID,161,VALID,0.223438,
2011-09-23, 02:42:05,VALID,917.597,VALID,0,VALID,97.2443,VALID,0,VALID,20.1513,VALID,161,VALID,0.227344,
2011-09-23, 02:43:05,VALID,917.584,VALID,0,VALID,97.2443,VALID,0,VALID,20.1513,VALID,161,VALID,0,
2011-09-23, 02:44:05,VALID,917.594,VALID,0,VALID,97.2519,VALID,0,VALID,20.1108,VALID,161,VALID,0,
2011-09-23, 02:45:05,VALID,917.59,VALID,0,VALID,97.2595,VALID,0,VALID,20.1513,VALID,161,VALID,0,
2011-09-23, 02:46:05,VALID,917.57,VALID,0,VALID,97.2595,VALID,0,VALID,20.1708,VALID,161,VALID,0,
2011-09-23, 02:47:05,VALID,917.58,VALID,0,VALID,97.2519,VALID,0,VALID,20.1903,VALID,161,VALID,0,
2011-09-23, 02:48:05,VALID,917.578,VALID,0,VALID,97.2519,VALID,0,VALID,20.1529,VALID,161,VALID,0,
2011-09-23, 02:49:05,VALID,917.577,VALID,0,VALID,97.2824,VALID,0,VALID,20.1123,VALID,161,VALID,0,
2011-09-23, 02:50:05,VALID,917.568,VALID,0,VALID,97.2595,VALID,0,VALID,20.1108,VALID,161,VALID,0,
2011-09-23, 02:51:05,VALID,917.586,VALID,0,VALID,97.2824,VALID,0,VALID,20.1318,VALID,161,VALID,0,
2011-09-23, 02:52:05,VALID,917.566,VALID,0,VALID,97.2367,VALID,0,VALID,20.0928,VALID,161,VALID,0.0492188,
2011-09-23, 02:53:05,VALID,917.572,VALID,0,VALID,97.229,VALID,0,VALID,20.0928,VALID,161,VALID,0.375391,
2011-09-23, 02:54:05,VALID,917.567,VALID,0,VALID,97.2595,VALID,0,VALID,20.0523,VALID,161,VALID,0.161719,
2011-09-23, 02:55:05,VALID,917.566,VALID,0,VALID,97.2595,VALID,0,VALID,20.0913,VALID,161,VALID,0.259766,
2011-09-23, 02:56:05,VALID,917.577,VALID,0,VALID,97.2748,VALID,0,VALID,20.1498,VALID,161,VALID,0.138672,
2011-09-23, 02:57:05,VALID,917.563,VALID,0,VALID,97.2824,VALID,0,VALID,20.2098,VALID,161,VALID,0.182422,
2011-09-23, 02:58:05,VALID,917.574,VALID,0,VALID,97.2824,VALID,0,VALID,20.2293,VALID,161,VALID,0.0316406,
2011-09-23, 02:59:05,VALID,917.581,VALID,0,VALID,97.3053,VALID,0,VALID,20.2098,VALID,161,VALID,0,
2011-09-23, 03:00:05,VALID,917.57,VALID,0,VALID,97.2824,VALID,0,VALID,20.2083,VALID,161,VALID,0,
2011-09-23, 03:01:05,VALID,917.578,VALID,0,VALID,97.2748,VALID,0,VALID,20.2098,VALID,161,VALID,0,
2011-09-23, 03:02:05,VALID,917.584,VALID,0,VALID,97.2824,VALID,0,VALID,20.2098,VALID,161,VALID,0,
2011-09-23, 03:03:05,VALID,917.583,VALID,0,VALID,97.2824,VALID,0,VALID,20.1888,VALID,161,VALID,0,
2011-09-23, 03:04:05,VALID,917.538,VALID,0,VALID,97.2824,VALID,0,VALID,20.1888,VALID,161,VALID,0.317578,
2011-09-23, 03:05:05,VALID,917.559,VALID,0,VALID,97.2595,VALID,0.107441,VALID,20.1693,VALID,161,VALID,0.136328,
2011-09-23, 03:06:05,VALID,917.561,VALID,0,VALID,97.2595,VALID,0,VALID,20.1888,VALID,161,VALID,0,
2011-09-23, 03:07:05,VALID,917.544,VALID,0,VALID,97.2672,VALID,0,VALID,20.1888,VALID,161,VALID,0,
2011-09-23, 03:08:05,VALID,917.558,VALID,0,VALID,97.2748,VALID,0,VALID,20.1903,VALID,161,VALID,0.0398437,
2011-09-23, 03:09:05,VALID,917.545,VALID,0,VALID,97.2595,VALID,0,VALID,20.2098,VALID,161,VALID,0.0878906,
2011-09-23, 03:10:05,VALID,917.553,VALID,0,VALID,97.2748,VALID,0,VALID,20.2098,VALID,161,VALID,0,
2011-09-23, 03:11:05,VALID,917.544,VALID,0,VALID,97.2748,VALID,0,VALID,20.1888,VALID,161,VALID,0,
2011-09-23, 03:12:05,VALID,917.536,VALID,0,VALID,97.2595,VALID,0,VALID,20.1903,VALID,161,VALID,0,
2011-09-23, 03:13:05,VALID,917.536,VALID,0,VALID,97.2672,VALID,0,VALID,20.2293,VALID,161,VALID,0,
2011-09-23, 03:14:05,VALID,917.541,VALID,0,VALID,97.2824,VALID,0,VALID,20.2293,VALID,161,VALID,0,
2011-09-23, 03:15:05,VALID,917.536,VALID,0,VALID,97.29,VALID,0,VALID,20.2278,VALID,161,VALID,0,
2011-09-23, 03:16:05,VALID,917.508,VALID,0,VALID,97.2977,VALID,0,VALID,20.2684,VALID,161,VALID,0,
2011-09-23, 03:17:05,VALID,917.497,VALID,0,VALID,97.29,VALID,0,VALID,20.2879,VALID,161,VALID,0,
2011-09-23, 03:18:05,VALID,917.49,VALID,0,VALID,97.2824,VALID,0,VALID,20.2668,VALID,161,VALID,0,
2011-09-23, 03:19:05,VALID,917.518,VALID,0,VALID,97.2977,VALID,0,VALID,20.3074,VALID,161,VALID,0,
2011-09-23, 03:20:05,VALID,917.513,VALID,0,VALID,97.2824,VALID,0,VALID,20.3074,VALID,161,VALID,0,
2011-09-23, 03:21:05,VALID,917.494,VALID,0,VALID,97.2824,VALID,0.107441,VALID,20.2863,VALID,161,VALID,0,
2011-09-23, 03:22:05,VALID,917.467,VALID,0,VALID,97.2672,VALID,0,VALID,20.3074,VALID,161,VALID,0,
2011-09-23, 03:23:05,VALID,917.485,VALID,0,VALID,97.2824,VALID,0,VALID,20.3464,VALID,161,VALID,0,
2011-09-23, 03:24:04,VALID,917.477,VALID,0,VALID,97.29,VALID,0,VALID,20.3269,VALID,161,VALID,0.0492188,
2011-09-23, 03:25:04,VALID,917.468,VALID,0,VALID,97.29,VALID,0,VALID,20.3058,VALID,161,VALID,0,
2011-09-23, 03:26:04,VALID,917.472,VALID,0,VALID,97.29,VALID,0,VALID,20.3269,VALID,161,VALID,0.128125,
2011-09-23, 03:27:04,VALID,917.477,VALID,0,VALID,97.2748,VALID,0,VALID,20.3074,VALID,161,VALID,0,
2011-09-23, 03:28:04,VALID,917.459,VALID,0,VALID,97.2672,VALID,0,VALID,20.3074,VALID,161,VALID,0,
2011-09-23, 03:29:04,VALID,917.435,VALID,0,VALID,97.2672,VALID,0,VALID,20.3058,VALID,161,VALID,0,
2011-09-23, 03:30:04,VALID,917.449,VALID,0,VALID,97.2672,VALID,0,VALID,20.3058,VALID,161,VALID,0,
2011-09-23, 03:31:04,VALID,917.466,VALID,0,VALID,97.2748,VALID,0,VALID,20.3464,VALID,161,VALID,0,
2011-09-23, 03:32:04,VALID,917.446,VALID,0,VALID,97.2519,VALID,0,VALID,20.3269,VALID,161,VALID,0,
2011-09-23, 03:33:04,VALID,917.441,VALID,0,VALID,97.2748,VALID,0,VALID,20.3074,VALID,161,VALID,0,
2011-09-23, 03:34:04,VALID,917.427,VALID,0,VALID,97.2748,VALID,0,VALID,20.2879,VALID,161,VALID,0.243359,
2011-09-23, 03:35:04,VALID,917.461,VALID,0,VALID,97.2672,VALID,0,VALID,20.2668,VALID,161,VALID,0.0714844,
2011-09-23, 03:36:04,VALID,917.422,VALID,0,VALID,97.2595,VALID,0,VALID,20.2863,VALID,161,VALID,0,
2011-09-23, 03:37:04,VALID,917.435,VALID,0,VALID,97.2519,VALID,0,VALID,20.2684,VALID,161,VALID,0.148438,
2011-09-23, 03:38:04,VALID,917.419,VALID,0,VALID,97.2519,VALID,0,VALID,20.2684,VALID,161,VALID,0.0183594,
2011-09-23, 03:39:04,VALID,917.419,VALID,0,VALID,97.2595,VALID,0,VALID,20.2278,VALID,161,VALID,0,
2011-09-23, 03:40:04,VALID,917.388,VALID,0,VALID,97.2595,VALID,0,VALID,20.2489,VALID,161,VALID,0,
2011-09-23, 03:41:04,VALID,917.393,VALID,0,VALID,97.2748,VALID,0,VALID,20.2278,VALID,161,VALID,0,
2011-09-23, 03:42:04,VALID,917.39,VALID,0,VALID,97.2672,VALID,0,VALID,20.2489,VALID,161,VALID,0,
2011-09-23, 03:43:04,VALID,917.37,VALID,0,VALID,97.2748,VALID,0,VALID,20.2489,VALID,161,VALID,0,
2011-09-23, 03:44:04,VALID,917.359,VALID,0,VALID,97.2672,VALID,0,VALID,20.2278,VALID,161,VALID,0,
2011-09-23, 03:45:04,VALID,917.35,VALID,0,VALID,97.29,VALID,0,VALID,20.2489,VALID,161,VALID,0,
2011-09-23, 03:46:04,VALID,917.314,VALID,0,VALID,97.2672,VALID,0,VALID,20.2684,VALID,161,VALID,0,
2011-09-23, 03:47:04,VALID,917.3,VALID,0,VALID,97.2595,VALID,0,VALID,20.2278,VALID,161,VALID,0,
2011-09-23, 03:48:04,VALID,917.33,VALID,0,VALID,97.2519,VALID,0,VALID,20.2473,VALID,161,VALID,0,
2011-09-23, 03:49:04,VALID,917.311,VALID,0,VALID,97.2672,VALID,0,VALID,20.2668,VALID,161,VALID,0,
2011-09-23, 03:50:04,VALID,917.328,VALID,0,VALID,97.2748,VALID,0.107441,VALID,20.2879,VALID,161,VALID,0,
2011-09-23, 03:51:04,VALID,917.318,VALID,0,VALID,97.2748,VALID,0.107441,VALID,20.2473,VALID,161,VALID,0,